EHI
0 0 0 0 0 0 0 0 0 0 0 0 0 0 0 0 0 0 0 0 0 0 0 0 0 0 0 0 0 0 0 0 0 0 0 0 0 0 0 0 0 0 0 0
0 0 0 0 0 0 0 0 0 0 0 0 0 0 0 0 0 0 0 0 0 0 0 0 0 0 0 0 0 0 0 0 0 0 0 0 0 0 0 0 0 0 0 0
0 0 0 0 0 0 0 0 0 0 0 0 0 0 0 0 0 0 0 0 0 0 0 0 0 0 0 0 0 0 0 0 0 0 0 0 0 0 0 0 0 0 0 0
0 0 0 0 0 0 0 0 0 0 0 0 0 0 0 0 0 0 0 0 0 0 0 0 0 0 0 0 0 0 0 0 0 0 0 0 0 0 0 0 0 0 0 0
0 0 0 0 0 0 0 0 0 0 0 0 0 0 0 0 0 0 0 0 0 0 0 0 0 0 0 0 0 0 0 0 0 0 0 0 0 0 0 0 0 0 0 0
0 0 0 0 0 0 0 0 0 0 0 0 0 0 0 0 0 0 0 0 0 0 0 0 0 0 0 0 0 0 0 0 0 0 0 0 0 0 0 0 0 0 0 0
0 0 0 0 0 0 0 0 0 0 0 0 0 0 0 0 0 0 0 0 0 0 0 0 0 0 0 0 0 0 0 0 0 0 0 0 0 0 0 0 0 0 0 0
0 0 0 0 0 0 0 0 0 0 0 0 0 0 0 0 0 0 0 0 0 0 0 0 0 0 0 0 0 0 0 0 0 0 0 0 0 0 0 0 0 0 0 0
0 0 0 0 0 0 0 0 0 0 0 0 0 0 0 0 0 0 0 0 0 0 0 0 0 0 0 0 0 0 0 0 0 0 0 0 0 0 0 0 0 0 0 0
0 0 0 0 0 0 0 0 0 0 0 0 0 0 0 0 0 0 0 0 0 0 0 0 0 0 0 0 0 0 0 0 0 0 0 0 0 0 0 0 0 0 0 0
0 0 0 0 0 0 0 0 0 0 0 0 0 0 0 0 0 0 0 0 0 0 0 0 0 0 0 0 0 0 0 0 0 0 0 0 0 0 0 0 0 0 0 0
0 0 0 0 0 0 0 0 0 0 0 0 0 0 0 0 0 0 0 0 0 0 0 0 0 0 0 0 0 0 0 0 0 0 0 0 0 0 0 0 0 0 0 0
0 0 0 0 0 0 0 0 0 0 0 0 0 0 0 0 0 0 0 0 0 0 0 0 0 0 0 0 0 0 0 0 0 0 0 0 0 0 0 0 0 0 0 0
0 0 0 0 0 0 0 0 0 0 0 0 0 0 0 0 0 0 0 0 0 0 0 0 0 0 0 0 0 0 0 0 0 0 0 0 0 0 0 0 0 0 0 0
0 0 0 0 0 0 0 0 0 0 0 0 0 0 0 0 0 0 0 0 0 0 0 0 0 0 0 0 0 0 0 0 0 0 0 0 0 0 0 0 0 0 0 0
0 0 0 0 0 0 0 0 0 0 0 0 0 0 0 0 0 0 0 0 0 0 0 0 0 0 0 0 0 0 0 0 0 0 0 0 0 0 0 0 0 0 0 0
0 0 0 0 0 0 0 0 0 0 0 0 0 0 0 0 0 0 0 0 0 0 0 0 0 0 0 0 0 0 0 0 0 0 0 0 0 0 0 0 0 0 0 0
0 0 0 0 0 0 0 0 0 0 0 0 0 0 0 0 0 0 0 0 0 0 0 0 0 0 0 0 0 0 0 0 0 0 0 0 0 0 0 0 0 0 0 0
0 0 0 0 0 0 0 0 0 0 0 0 0 0 0 0 0 0 0 0 0 0 0 0 0 0 0 0 0 0 0 0 0 0 0 0 0 0 0 0 0 0 0 0
0 0 0 0 0 0 0 0 0 0 0 0 0 0 0 0 0 0 0 0 0 0 0 0 0 0 0 0 0 0 0 0 0 0 0 0 0 0 0 0 0 0 0 0
0 0 0 0 0 0 0 0 0 0 0 0 0 0 0 0 0 0 0 0 0 0 0 0 0 0 0 0 0 0 0 0 0 0 0 0 0 0 0 0 0 0 0 0
0 0 0 0 0 0 0 0 0 0 0 0 0 0 0 0 0 0 0 0 0 0 0 0 0 0 0 0 0 0 0 0 0 0 0 0 0 0 0 0 0 0 0 0
0 0 0 0 0 0 0 0 0 0 0 0 0 0 0 0 0 0 0 0 0 0 0 0 0 0 0 0 0 0 0 0 0 0 0 0 0 0 0 0 0 0 0 0
0 0 0 0 0 0 0 0 0 0 0 0 0 0 0 0 0 0 0 0 0 0 0 0 0 0 0 0 0 0 0 0 0 0 0 0 0 0 0 0 0 0 0 0
0 0 0 0 0 0 0 0 0 0 0 0 0 0 0 0 0 0 0 0 0 0 0 0 0 0 0 0 0 0 0 0 0 0 0 0 0 0 0 0 0 0 0 0
0 0 0 0 0 0 0 0 0 0 0 0 0 0 0 0 0 0 0 0 0 0 0 0 0 0 0 0 0 0 0 0 0 0 0 0 0 0 0 0 0 0 0 0
Wind_Speed
2 3 3 6 5 2 2 3 4 4 2 2 8 12 13 8 6 7 7 7 7 8 6 4 5 4 4 4 5 6 6 5 4 3 3 3 3 2 2 2 3 3 2 3
3 3 4 2 2 2 2 3 4 4 1 2 7 12 10 7 7 8 9 9 8 6 4 4 4 4 5 5 6 6 6 6 6 4 3 3 2 2 2 2 2 3 3 3
5 2 1 3 2 3 3 4 4 4 4 2 5 9 5 4 3 4 6 6 6 8 7 6 5 6 5 6 6 6 6 6 6 5 2 2 1 1 1 2 2 3 3 3
3 2 2 3 3 4 4 3 3 2 2 4 2 6 7 4 5 5 5 5 6 6 6 5 5 5 6 6 5 5 6 6 5 5 5 5 4 4 4 3 2 2 3 3
2 1 2 3 3 3 3 0 1 1 1 3 1 3 11 3 5 6 6 5 5 5 5 5 6 6 6 5 4 4 5 5 5 6 6 5 4 3 2 2 2 2 2 3
1 0 2 2 1 2 2 2 2 3 2 3 4 4 9 4 6 5 4 4 4 4 3 4 3 2 3 2 3 3 4 4 5 6 5 6 5 4 3 3 3 2 2 2
1 1 1 1 2 1 2 3 3 4 3 6 2 4 11 6 4 3 4 4 4 3 2 2 2 2 2 2 2 3 4 4 4 5 5 5 6 5 5 4 4 3 3 3
2 4 3 2 3 4 3 4 6 4 5 5 2 7 9 4 3 3 3 3 3 3 2 3 3 3 3 3 3 3 4 4 4 4 4 4 4 4 4 4 4 4 4 4
5 4 0 0 0 4 4 3 3 4 1 3 6 7 9 3 3 3 4 4 4 4 3 3 3 2 2 3 3 4 4 3 3 4 4 3 3 3 4 4 3 3 3 3
5 2 1 0 1 1 2 4 4 4 3 4 6 5 5 5 4 4 4 4 4 4 3 3 3 2 2 2 2 2 3 3 3 3 3 3 3 3 3 3 3 3 3 3
2 3 1 0 5 6 4 3 3 3 3 4 4 8 5 4 2 3 4 4 4 3 3 3 3 3 2 1 0 1 1 1 1 2 2 2 2 2 2 2 3 3 3 3
3 4 2 4 1 0 3 5 6 4 4 4 3 9 3 2 1 2 4 4 4 3 3 2 3 3 3 2 1 0 1 1 1 1 1 1 1 1 1 2 2 2 2 2
4 4 1 3 2 1 3 3 4 3 3 4 5 9 2 2 4 3 3 4 4 4 3 3 3 3 3 2 2 1 1 1 1 1 1 1 0 0 1 1 1 1 2 2
4 3 6 8 5 4 4 4 5 5 5 6 10 9 8 6 5 6 5 4 4 3 3 3 3 3 2 2 2 1 1 1 0 0 1 1 1 1 2 2 1 1 1 2
3 4 5 6 3 3 6 7 8 10 10 10 10 9 11 7 5 4 4 4 4 4 4 3 3 3 3 3 3 2 1 1 1 0 0 1 1 1 1 1 1 1 1 1
2 3 1 4 3 3 7 10 11 11 9 11 10 13 8 5 3 3 4 3 4 4 4 4 4 3 3 3 3 2 2 1 0 0 1 1 1 1 1 1 1 1 1 1
4 4 2 4 3 3 10 11 12 8 8 8 13 13 4 3 4 4 4 3 4 5 4 4 4 3 3 3 2 2 2 0 0 0 1 1 1 1 1 1 1 2 2 1
6 4 3 1 1 9 9 2 8 8 8 9 9 8 4 5 4 3 3 3 5 4 4 4 4 3 2 2 2 2 1 1 0 1 1 1 1 2 2 1 2 2 2 2
5 6 4 3 4 10 9 3 6 7 8 9 12 11 6 2 1 3 2 2 3 3 3 3 3 2 1 1 2 1 1 1 1 1 2 2 1 2 2 2 3 2 2 2
2 3 4 4 5 10 7 2 3 3 7 5 7 8 5 2 2 5 2 1 3 3 2 2 2 2 1 2 1 1 1 1 2 3 3 2 2 2 2 3 3 2 2 2
4 4 6 7 8 11 7 2 4 5 8 2 5 5 4 5 6 3 2 2 3 3 2 2 1 1 1 1 1 1 1 2 4 3 2 2 2 2 2 2 2 1 1 2
10 8 8 6 7 13 3 6 8 7 1 2 2 2 4 5 4 3 3 3 3 3 2 2 1 2 2 1 1 1 3 4 3 3 2 2 2 2 1 1 2 1 1 2
9 9 8 11 10 3 5 6 4 0 1 1 1 2 2 3 4 4 3 3 3 2 2 2 1 2 1 1 0 2 4 3 3 2 2 2 2 2 1 1 2 1 1 2
5 2 4 6 8 5 4 4 3 2 3 3 2 2 2 4 4 4 4 3 3 2 2 2 1 2 2 2 2 3 3 3 2 2 2 2 2 2 1 1 2 2 2 2
6 5 4 7 6 4 4 6 5 4 3 3 3 2 3 3 4 4 4 3 3 2 2 1 1 3 3 3 3 3 3 2 2 2 3 2 2 2 2 2 2 3 3 3
5 7 8 8 6 6 5 3 2 3 4 4 3 3 3 2 4 3 3 3 3 3 2 2 3 3 4 3 3 3 2 1 2 2 3 2 2 2 2 3 4 5 5 6
Wind_Direction
53 88 195 210 201 200 167 197 252 259 265 261 258 270 276 268 252 251 251 249 248 249 252 240 229 223 211 203 202 202 199 197 182 179 182 188 203 210 209 202 197 192 186 179
70 234 236 195 176 186 207 248 263 286 304 271 285 279 271 250 234 231 235 240 244 253 260 249 234 221 216 214 209 208 205 198 193 192 190 193 187 203 209 206 201 199 190 186
181 219 199 164 162 179 227 221 239 269 318 297 311 300 276 263 246 250 242 242 244 239 241 241 233 227 221 220 216 213 208 201 195 184 160 130 128 131 177 205 214 215 201 191
200 245 155 160 191 183 239 224 218 257 328 302 9 299 290 280 292 272 264 255 251 251 244 241 235 232 226 226 220 212 203 198 191 179 176 176 186 200 207 200 211 212 200 193
219 198 175 193 200 169 198 125 158 216 213 299 273 252 285 316 290 276 268 264 264 261 250 244 237 231 228 222 217 212 199 195 188 183 185 186 196 207 197 177 192 202 203 199
213 224 188 193 157 157 139 72 60 56 71 281 230 203 279 256 246 277 283 284 285 283 271 264 264 248 236 219 212 204 192 199 189 186 188 192 197 192 185 191 198 211 213 204
297 258 214 142 110 81 110 100 28 355 350 256 212 218 253 255 249 258 280 292 308 307 297 288 280 264 239 213 210 201 189 196 193 190 196 200 204 195 197 201 201 208 211 209
194 255 213 186 173 168 182 159 160 202 240 283 262 239 254 256 273 278 291 304 331 332 319 298 270 256 245 224 207 195 195 198 193 192 201 202 201 200 206 206 201 208 214 212
183 238 38 135 192 153 159 192 169 135 146 284 271 277 295 269 305 336 345 351 339 323 318 306 300 277 254 229 209 199 194 193 198 204 200 198 196 204 210 208 201 210 219 210
159 205 249 313 87 308 176 153 132 147 176 263 286 270 257 286 303 334 338 327 315 319 321 326 325 313 288 246 214 177 185 196 200 199 206 208 203 211 215 207 207 211 210 201
147 161 267 219 200 191 165 170 160 153 175 183 263 270 232 239 280 300 302 308 306 306 305 314 324 328 327 339 158 169 180 187 196 200 198 204 209 205 206 209 213 220 215 201
164 136 232 239 237 218 193 188 167 178 221 204 225 265 265 209 292 300 308 319 322 321 324 332 338 355 358 347 330 243 208 212 227 205 177 199 209 159 188 234 228 218 217 209
143 133 76 338 314 288 227 209 193 160 147 186 209 259 295 359 338 332 321 324 332 340 347 353 355 355 344 335 327 299 265 250 255 174 164 189 238 240 244 264 278 242 226 216
126 163 192 209 221 183 213 215 187 172 199 222 228 251 284 302 313 318 321 321 330 339 344 347 341 338 336 334 330 318 310 306 297 151 167 214 245 247 259 271 280 264 242 224
134 209 238 261 265 216 226 225 207 213 218 225 245 243 256 266 277 292 306 323 337 339 340 335 328 327 336 339 335 329 326 355 31 108 213 260 281 293 299 299 293 277 243 229
151 197 219 279 272 259 261 242 220 227 232 242 262 268 258 264 269 293 302 310 313 309 307 313 315 320 320 314 313 313 311 328 69 168 278 321 348 342 323 305 305 294 286 285
171 156 175 260 300 331 266 230 202 204 211 202 230 247 253 267 272 272 283 286 281 285 291 295 291 284 286 288 285 277 277 307 102 338 328 335 329 314 304 311 313 289 271 263
165 161 178 224 84 239 246 171 183 202 229 218 240 259 249 248 260 269 265 263 279 289 297 294 294 294 299 313 321 324 355 41 54 344 326 332 326 307 316 316 292 285 271 253
182 166 168 177 232 269 286 239 178 196 252 223 233 253 259 263 318 292 267 245 262 277 288 288 290 290 312 333 339 11 18 28 12 322 307 301 287 284 292 281 277 271 262 260
170 170 173 183 210 240 250 226 180 146 267 230 209 237 243 159 259 271 304 302 293 300 311 315 331 348 359 350 18 59 18 359 305 291 290 292 280 266 267 271 277 284 266 261
163 186 198 207 231 257 256 230 136 177 248 216 191 218 202 194 221 259 325 322 312 314 324 337 345 340 336 11 47 44 342 289 293 309 310 303 287 274 275 280 290 300 280 287
180 181 195 182 217 250 211 145 185 217 215 136 176 198 201 224 252 276 295 307 322 328 338 349 342 334 2 36 54 301 288 302 324 320 309 301 300 296 292 290 300 311 276 274
204 195 188 195 216 240 169 193 222 215 195 222 212 235 219 242 262 271 279 290 309 316 325 343 340 336 357 12 329 277 304 331 327 320 310 310 313 308 305 278 279 296 274 260
238 226 199 240 255 247 240 255 271 253 239 262 267 274 251 255 271 278 282 290 298 309 320 334 341 318 304 310 302 297 328 333 322 305 306 313 310 309 307 279 260 253 252 256
210 180 203 243 259 282 256 234 245 257 263 273 278 273 259 257 273 275 283 289 291 300 309 310 289 286 289 301 299 314 331 329 308 302 306 308 301 291 285 274 262 258 250 242
185 187 199 231 224 215 242 238 230 242 259 258 270 297 303 262 270 283 283 291 297 299 305 304 291 288 291 292 293 309 319 303 281 292 298 298 294 291 285 287 294 280 275 277